StationID,Date,MaxTemp,MinTemp,Precipitation,Snowfall,SnowDepth
"CA001015630","2007-11-27",45.14,27.32,32.00,,
"CA001015630","2007-11-28",38.30,29.48,120.00,,
"CA001015630","2007-11-29",45.14,27.86,0.00,,
"CA001015630","2007-11-30",39.38,21.92,0.00,,
"CA001015630","2007-12-01",31.82,26.24,227.00,,
"CA001015630","2007-12-02",32.36,26.24,247.00,,220.00
"CA001015630","2007-12-06",46.22,27.32,0.00,,
"CA001015630","2007-12-07",40.46,23.36,0.00,,
"CA001015630","2007-12-08",41.18,21.02,0.00,,
"CA001015630","2007-12-09",33.62,23.90,17.00,,
"CA001015630","2007-12-10",41.90,29.12,0.00,,10.00
"CA001015630","2007-12-11",37.76,30.38,0.00,,
"CA001015630","2007-12-12",43.16,26.42,0.00,,
"CA001015630","2007-12-13",41.54,30.20,19.00,,
"CA001015630","2007-12-14",41.72,38.12,143.00,,
"CA001015630","2007-12-17",41.72,34.88,0.00,,
"CA001015630","2007-12-18",38.84,34.34,79.00,,
"CA001015630","2007-12-19",43.70,33.98,143.00,,
"CA001015630","2007-12-20",46.76,26.60,0.00,,
"CA001015630","2007-12-21",37.22,24.44,12.00,,
"CA001015630","2007-12-22",43.88,32.54,241.00,,
"CA001015630","2007-12-23",41.54,34.34,146.00,,
"CA001015630","2007-12-24",46.94,30.20,0.00,,
"CA001015630","2007-12-25",38.30,29.12,49.00,,
"CA001015630","2007-12-26",44.78,28.22,0.00,,
"CA001015630","2007-12-27",36.68,26.96,183.00,,
"CA001015630","2007-12-28",40.82,31.82,0.00,,
"CA001015630","2007-12-29",37.76,27.14,46.00,,
"CA001015630","2007-12-30",42.62,31.46,0.00,,
"CA001015630","2007-12-31",39.92,23.54,0.00,,
"CA001015630","2008-01-01",44.24,32.00,0.00,,
"CA001015630","2008-01-02",45.32,37.22,128.00,,
"CA001015630","2008-01-03",45.68,40.46,65.00,,
"CA001015630","2008-01-04",49.46,39.92,48.00,,
"CA001015630","2008-01-05",45.32,33.98,126.00,,
"CA001015630","2008-01-06",41.00,31.82,27.00,,
"CA001015630","2008-01-07",41.00,28.76,6.00,,
"CA001015630","2008-01-08",40.82,32.18,219.00,,
"CA001015630","2008-01-09",42.08,32.00,42.00,,
"CA001015630","2008-01-10",40.28,32.00,416.00,,10.00
"CA001015630","2008-01-11",49.28,35.60,21.00,,
"CA001015630","2008-01-12",48.02,35.06,65.00,,
"CA001015630","2008-01-13",44.96,36.50,19.00,,
"CA001015630","2008-01-14",47.30,29.66,125.00,,
"CA001015630","2008-01-15",42.08,25.52,4.00,,
"CA001015630","2008-01-16",35.78,30.02,0.00,,
"CA001015630","2008-01-17",39.20,32.90,0.00,,
"CA001015630","2008-01-18",40.10,35.60,0.00,,
"CA001015630","2008-01-19",41.90,32.54,9.00,,
"CA001015630","2008-01-20",44.60,27.68,0.00,,
"CA001015630","2008-01-21",44.96,24.80,0.00,,
"CA001015630","2008-01-22",39.38,19.40,0.00,,
"CA001015630","2008-01-23",42.26,20.66,0.00,,
"CA001015630","2008-01-24",41.36,20.48,0.00,,
"CA001015630","2008-01-25",41.54,19.22,0.00,,
"CA001015630","2008-01-26",38.12,26.96,3.00,,
"CA001015630","2008-01-27",40.64,24.44,0.00,,
"CA001015630","2008-01-28",40.64,18.86,0.00,,
"CA001015630","2008-01-29",42.26,30.20,74.00,,10.00
"CA001015630","2008-01-30",41.00,26.96,23.00,,
"CA001015630","2008-01-31",43.88,33.80,35.00,,
"CA001015630","2008-02-01",44.78,29.12,0.00,,
"CA001015630","2008-02-02",39.20,28.22,0.00,,
"CA001015630","2008-02-03",43.34,26.78,0.00,,
"CA001015630","2008-02-04",38.12,24.26,0.00,,
"CA001015630","2008-02-05",44.78,33.62,139.00,,
"CA001015630","2008-02-06",40.10,32.54,66.00,,
"CA001015630","2008-02-07",47.66,32.18,110.00,,10.00
"CA001015630","2008-02-08",46.58,39.20,0.00,,
"CA001015630","2008-02-09",49.46,37.94,5.00,,
"CA001015630","2008-02-10",48.56,34.52,13.00,,
"CA001015630","2008-02-11",44.60,36.68,11.00,,
"CA001015630","2008-02-12",51.98,41.36,4.00,,
"CA001015630","2008-02-13",48.74,29.66,,,
"CA001015630","2008-02-14",43.70,26.96,0.00,,
"CA001015630","2008-02-15",42.98,33.44,34.00,,
"CA001015630","2008-02-16",48.56,30.38,0.00,,
"CA001015630","2008-02-17",48.38,29.84,0.00,,
"CA001015630","2008-02-18",50.90,25.52,0.00,,
"CA001015630","2008-02-19",49.46,25.88,0.00,,
"CA001015630","2008-02-20",52.34,35.42,3.00,,
"CA001015630","2008-02-21",52.88,28.58,0.00,,
"CA001015630","2008-02-22",55.04,31.82,0.00,,
"CA001015630","2008-02-23",49.82,32.18,6.00,,
"CA001015630","2008-02-24",56.66,26.96,0.00,,
"CA001015630","2008-02-25",54.50,27.14,0.00,,
"CA001015630","2008-02-26",51.62,38.66,0.00,,
"CA001015630","2008-02-27",50.90,34.34,0.00,,
"CA001015630","2008-02-28",53.96,33.62,0.00,,
"CA001015630","2008-02-29",48.92,37.40,33.00,,
"CA001015630","2008-03-01",50.72,33.26,5.00,,
"CA001015630","2008-03-02",47.48,27.14,15.00,,
"CA001015630","2008-03-03",50.00,37.40,50.00,,
"CA001015630","2008-03-04",49.28,28.40,0.00,,
"CA001015630","2008-03-05",49.82,26.24,0.00,,
"CA001015630","2008-03-06",50.54,26.42,5.00,,
"CA001015630","2008-03-07",48.38,39.02,11.00,,
"CA001015630","2008-03-08",53.96,36.50,0.00,,
"CA001015630","2008-03-09",51.80,34.52,3.00,,
"CA001015630","2008-03-10",49.10,42.62,84.00,,
"CA001015630","2008-03-11",49.10,40.64,61.00,,
"CA001015630","2008-03-12",48.74,30.38,0.00,,
"CA001015630","2008-03-13",48.38,35.24,10.00,,
"CA001015630","2008-03-14",46.58,40.82,29.00,,
"CA001015630","2008-03-15",48.92,39.02,14.00,,
"CA001015630","2008-03-16",44.96,34.16,,,
"CA001015630","2008-03-17",49.10,37.58,8.00,,
"CA001015630","2008-03-18",50.54,32.36,0.00,,
"CA001015630","2008-03-19",46.76,33.26,12.00,,
"CA001015630","2008-03-20",45.14,30.56,12.00,,
"CA001015630","2008-03-21",46.40,27.50,0.00,,
"CA001015630","2008-03-22",49.82,33.26,0.00,,
"CA001015630","2008-03-23",47.30,33.62,45.00,,
"CA001015630","2008-03-24",47.84,31.28,0.00,,
"CA001015630","2008-03-25",44.24,27.68,10.00,,
"CA001015630","2008-03-26",46.94,32.90,26.00,,
"CA001015630","2008-03-27",44.60,27.50,0.00,,
"CA001015630","2008-03-28",37.58,31.64,61.00,,
"CA001015630","2008-03-29",45.68,29.12,0.00,,
"CA001015630","2008-03-30",45.32,30.38,4.00,,
"CA001015630","2008-03-31",43.34,26.42,0.00,,
"CA001015630","2008-04-01",45.68,22.64,0.00,,
"CA001015630","2008-04-02",49.82,25.52,0.00,,
"CA001015630","2008-04-03",52.70,26.24,0.00,,
"CA001015630","2008-04-04",47.30,35.96,16.00,,
"CA001015630","2008-04-05",45.32,33.08,6.00,,
"CA001015630","2008-04-06",50.18,36.86,40.00,,
"CA001015630","2008-04-07",50.00,35.96,4.00,,
"CA001015630","2008-04-08",46.76,33.62,0.00,,
"CA001015630","2008-04-09",48.92,26.42,13.00,,
"CA001015630","2008-04-10",52.34,33.80,,,
"CA001015630","2008-04-11",54.32,39.92,0.00,,
"CA001015630","2008-04-12",68.36,34.16,0.00,,
"CA001015630","2008-04-13",58.64,43.88,0.00,,
"CA001015630","2008-04-14",51.98,32.90,18.00,,
"CA001015630","2008-04-15",49.82,38.12,0.00,,
"CA001015630","2008-04-16",53.60,37.04,0.00,,
"CA001015630","2008-04-17",59.00,38.84,0.00,,
"CA001015630","2008-04-18",45.86,31.82,98.00,,
"CA001015630","2008-04-19",42.44,31.64,20.00,,
"CA001015630","2008-04-20",46.58,24.98,0.00,,
"CA001015630","2008-04-21",47.12,27.86,86.00,,
"CA001015630","2008-04-22",53.42,27.68,0.00,,
"CA001015630","2008-04-23",50.36,40.28,18.00,,
"CA001015630","2008-04-24",49.82,36.50,0.00,,
"CA001015630","2008-04-25",54.14,36.14,0.00,,
"CA001015630","2008-04-26",58.64,27.86,0.00,,
"CA001015630","2008-04-27",50.54,43.34,37.00,,
"CA001015630","2008-04-28",57.02,38.12,62.00,,
"CA001015630","2008-04-29",50.90,35.24,0.00,,
"CA001015630","2008-04-30",51.44,30.56,0.00,,
"CA001015630","2008-05-01",54.14,37.22,0.00,,
"CA001015630","2008-05-02",51.80,37.40,34.00,,
"CA001015630","2008-05-03",57.74,41.90,0.00,,
"CA001015630","2008-05-04",61.88,34.52,0.00,,
"CA001015630","2008-05-05",64.94,40.46,0.00,,
"CA001015630","2008-05-06",59.90,39.92,0.00,,
"CA001015630","2008-05-07",54.86,39.20,0.00,,
"CA001015630","2008-05-08",53.78,37.58,0.00,,
"CA001015630","2008-05-09",57.56,31.64,0.00,,
"CA001015630","2008-05-10",54.14,44.24,0.00,,
"CA001015630","2008-05-11",55.58,43.52,0.00,,
"CA001015630","2008-05-12",55.94,33.98,0.00,,
"CA001015630","2008-05-13",49.82,44.42,27.00,,
"CA001015630","2008-05-14",57.92,47.48,0.00,,
"CA001015630","2008-05-15",65.48,48.92,0.00,,
"CA001015630","2008-05-16",79.34,41.54,0.00,,
"CA001015630","2008-05-17",86.36,47.84,0.00,,
"CA001015630","2008-05-18",71.24,53.42,0.00,,
"CA001015630","2008-05-19",65.12,57.02,5.00,,
"CA001015630","2008-05-20",59.54,49.46,,,
"CA001015630","2008-05-21",58.10,44.06,73.00,,
"CA001015630","2008-05-22",59.90,37.94,0.00,,
"CA001015630","2008-05-23",66.20,36.68,0.00,,
"CA001015630","2008-05-24",75.92,47.66,0.00,,
"CA001015630","2008-05-25",76.82,53.42,0.00,,
"CA001015630","2008-05-26",67.82,54.86,76.00,,
"CA001015630","2008-05-27",69.08,52.52,4.00,,
"CA001015630","2008-05-28",68.54,50.36,6.00,,
"CA001015630","2008-05-29",62.24,40.82,0.00,,
"CA001015630","2008-05-30",61.34,43.52,0.00,,
"CA001015630","2008-05-31",68.00,37.76,0.00,,
"CA001015630","2008-06-01",62.78,46.94,0.00,,
"CA001015630","2008-06-02",61.34,42.08,0.00,,
"CA001015630","2008-06-03",56.48,47.84,29.00,,
"CA001015630","2008-06-04",60.26,49.46,0.00,,
"CA001015630","2008-06-05",50.36,44.06,58.00,,
"CA001015630","2008-06-06",59.90,43.34,97.00,,
"CA001015630","2008-06-07",61.34,48.56,0.00,,
"CA001015630","2008-06-08",57.56,43.88,0.00,,
"CA001015630","2008-06-09",53.42,39.38,193.00,,
"CA001015630","2008-06-10",57.38,41.72,18.00,,
"CA001015630","2008-06-11",58.10,48.56,0.00,,
"CA001015630","2008-06-12",64.94,46.94,0.00,,
"CA001015630","2008-06-13",64.04,44.42,0.00,,
"CA001015630","2008-06-14",63.68,45.14,0.00,,
"CA001015630","2008-06-15",67.46,39.02,0.00,,
"CA001015630","2008-06-16",73.04,42.44,0.00,,
"CA001015630","2008-06-17",60.08,44.96,0.00,,
"CA001015630","2008-06-18",61.34,43.88,0.00,,
"CA001015630","2008-06-19",63.68,41.90,0.00,,
"CA001015630","2008-06-20",73.94,48.74,0.00,,
"CA001015630","2008-06-21",76.64,51.08,0.00,,
"CA001015630","2008-06-22",69.26,50.54,0.00,,
"CA001015630","2008-06-23",67.82,41.54,0.00,,
"CA001015630","2008-06-24",68.36,50.54,0.00,,
"CA001015630","2008-06-25",71.60,44.24,0.00,,
"CA001015630","2008-06-26",61.88,48.74,0.00,,
"CA001015630","2008-06-27",72.86,46.04,0.00,,
"CA001015630","2008-06-28",84.74,50.18,0.00,,
"CA001015630","2008-06-29",88.88,55.22,0.00,,
"CA001015630","2008-06-30",85.28,62.06,0.00,,
"CA001015630","2008-07-01",75.92,55.04,0.00,,
"CA001015630","2008-07-02",79.88,52.70,0.00,,
"CA001015630","2008-07-03",72.86,56.48,0.00,,
"CA001015630","2008-07-04",72.32,54.68,8.00,,
"CA001015630","2008-07-05",69.26,57.20,23.00,,
"CA001015630","2008-07-06",69.44,53.60,0.00,,
"CA001015630","2008-07-07",74.30,47.30,0.00,,
"CA001015630","2008-07-08",78.62,50.36,0.00,,
"CA001015630","2008-07-09",75.74,51.08,0.00,,
"CA001015630","2008-07-10",71.06,46.58,0.00,,
"CA001015630","2008-07-11",75.02,44.60,0.00,,
"CA001015630","2008-07-12",82.58,46.76,0.00,,
"CA001015630","2008-07-13",78.62,51.62,0.00,,
"CA001015630","2008-07-14",73.40,47.12,0.00,,
"CA001015630","2008-07-15",75.74,47.84,0.00,,
"CA001015630","2008-07-16",78.26,47.30,0.00,,
"CA001015630","2008-07-17",73.58,47.30,,,
"CA001015630","2008-07-18",69.08,46.94,0.00,,
"CA001015630","2008-07-19",73.22,48.02,0.00,,
"CA001015630","2008-07-20",77.72,48.20,0.00,,
"CA001015630","2008-07-21",75.20,52.52,0.00,,
"CA001015630","2008-07-22",69.62,53.78,0.00,,
"CA001015630","2008-07-23",69.98,50.36,0.00,,
"CA001015630","2008-07-24",73.94,44.60,0.00,,
"CA001015630","2008-07-25",76.64,47.84,0.00,,
"CA001015630","2008-07-26",68.54,55.22,27.00,,
"CA001015630","2008-07-27",73.22,55.94,0.00,,
"CA001015630","2008-07-28",68.72,44.24,0.00,,
"CA001015630","2008-07-29",62.78,52.34,91.00,,
"CA001015630","2008-07-30",66.20,50.00,0.00,,
"CA001015630","2008-07-31",59.00,46.76,44.00,,
"CA001015630","2008-08-01",64.76,51.26,5.00,,
"CA001015630","2008-08-02",66.92,50.54,0.00,,
"CA001015630","2008-08-03",74.84,44.96,0.00,,
"CA001015630","2008-08-04",79.52,46.58,0.00,,
"CA001015630","2008-08-05",85.46,47.12,0.00,,
"CA001015630","2008-08-06",88.88,51.08,0.00,,
"CA001015630","2008-08-07",79.88,52.34,0.00,,
"CA001015630","2008-08-08",75.56,49.82,5.00,,
"CA001015630","2008-08-09",68.72,53.06,28.00,,
"CA001015630","2008-08-10",70.52,52.88,0.00,,
"CA001015630","2008-08-11",74.66,52.70,0.00,,
"CA001015630","2008-08-12",72.14,49.10,0.00,,
"CA001015630","2008-08-13",77.90,50.90,0.00,,
"CA001015630","2008-08-14",87.26,51.98,0.00,,
"CA001015630","2008-08-15",87.26,57.38,0.00,,
"CA001015630","2008-08-16",89.96,55.58,0.00,,
"CA001015630","2008-08-17",88.88,58.28,0.00,,
"CA001015630","2008-08-18",76.28,60.26,0.00,,
"CA001015630","2008-08-19",67.28,56.66,89.00,,
"CA001015630","2008-08-20",63.68,54.32,62.00,,
"CA001015630","2008-08-21",65.84,51.80,4.00,,
"CA001015630","2008-08-22",69.80,48.92,0.00,,
"CA001015630","2008-08-23",75.20,58.82,0.00,,
"CA001015630","2008-08-24",62.06,55.40,160.00,,
"CA001015630","2008-08-25",69.26,47.48,0.00,,
"CA001015630","2008-08-26",63.86,42.08,6.00,,
"CA001015630","2008-08-27",66.56,50.00,51.00,,
"CA001015630","2008-08-28",63.68,55.04,0.00,,
"CA001015630","2008-08-29",69.98,49.28,0.00,,
"CA001015630","2008-08-30",63.68,41.36,0.00,,
"CA001015630","2008-08-31",65.66,37.94,0.00,,
"CA001015630","2008-09-01",64.76,40.10,0.00,,
"CA001015630","2008-09-02",65.30,42.44,0.00,,
"CA001015630","2008-09-03",67.64,43.34,0.00,,
"CA001015630","2008-09-04",69.62,45.68,0.00,,
"CA001015630","2008-09-05",70.52,46.04,0.00,,
"CA001015630","2008-09-06",71.60,51.08,0.00,,
"CA001015630","2008-09-07",78.26,45.86,0.00,,
"CA001015630","2008-09-08",73.40,43.52,0.00,,
"CA001015630","2008-09-09",67.46,44.24,0.00,,
"CA001015630","2008-09-10",71.78,40.28,0.00,,
"CA001015630","2008-09-11",74.30,41.54,0.00,,
"CA001015630","2008-09-12",73.22,46.94,0.00,,
"CA001015630","2008-09-13",76.28,42.26,0.00,,
"CA001015630","2008-09-14",75.02,41.72,0.00,,
"CA001015630","2008-09-15",76.46,41.18,0.00,,
"CA001015630","2008-09-16",78.62,42.62,0.00,,
"CA001015630","2008-09-17",78.08,44.60,0.00,,
"CA001015630","2008-09-18",64.94,46.58,0.00,,
"CA001015630","2008-09-19",65.66,52.34,0.00,,
"CA001015630","2008-09-20",60.26,51.62,0.00,,
"CA001015630","2008-09-21",65.66,50.72,0.00,,
"CA001015630","2008-09-22",62.06,46.22,3.00,,
"CA001015630","2008-09-23",59.54,34.70,0.00,,
"CA001015630","2008-09-24",53.96,46.94,81.00,,
"CA001015630","2008-09-25",55.94,46.58,183.00,,
"CA001015630","2008-09-26",64.22,53.06,0.00,,
"CA001015630","2008-09-27",65.66,46.76,0.00,,
"CA001015630","2008-09-28",67.64,38.66,0.00,,
"CA001015630","2008-09-29",73.58,37.22,0.00,,
"CA001015630","2008-09-30",77.18,42.62,0.00,,
"CA001015630","2008-10-01",73.76,42.80,0.00,,
"CA001015630","2008-10-02",60.08,50.90,51.00,,
"CA001015630","2008-10-03",57.20,54.14,171.00,,
"CA001015630","2008-10-04",57.92,47.66,69.00,,
"CA001015630","2008-10-05",55.22,39.56,0.00,,
"CA001015630","2008-10-06",53.42,49.10,31.00,,
"CA001015630","2008-10-07",57.56,39.20,10.00,,
"CA001015630","2008-10-08",55.22,34.16,0.00,,
"CA001015630","2008-10-09",46.58,31.46,0.00,,
"CA001015630","2008-10-10",57.38,28.22,0.00,,
"CA001015630","2008-10-11",52.16,26.24,0.00,,
"CA001015630","2008-10-12",58.46,38.66,0.00,,
"CA001015630","2008-10-13",54.14,44.60,17.00,,
"CA001015630","2008-10-14",51.62,33.44,0.00,,
"CA001015630","2008-10-15",51.08,27.50,77.00,,
"CA001015630","2008-10-17",57.74,46.76,68.00,,
"CA001015630","2008-10-18",55.40,34.34,0.00,,
"CA001015630","2008-10-19",52.70,30.20,0.00,,
"CA001015630","2008-10-20",55.40,41.54,31.00,,
"CA001015630","2008-10-21",52.70,31.82,0.00,,
"CA001015630","2008-10-22",61.88,36.14,0.00,,
"CA001015630","2008-10-23",55.76,36.14,0.00,,
"CA001015630","2008-10-24",53.78,35.42,0.00,,
"CA001015630","2008-10-25",53.78,32.54,0.00,,
"CA001015630","2008-10-26",54.32,27.86,0.00,,
"CA001015630","2008-10-27",58.28,28.40,0.00,,
"CA001015630","2008-10-28",59.72,30.74,0.00,,
"CA001015630","2008-10-29",52.70,44.96,0.00,,
"CA001015630","2008-10-30",49.10,43.70,17.00,,
"CA001015630","2008-10-31",52.16,46.76,85.00,,
"CA001015630","2008-11-01",52.70,47.30,14.00,,
"CA001015630","2008-11-02",55.40,41.54,73.00,,
"CA001015630","2008-11-03",48.74,41.36,9.00,,
"CA001015630","2008-11-04",52.52,36.50,0.00,,
"CA001015630","2008-11-05",46.22,28.94,0.00,,
"CA001015630","2008-11-06",48.02,41.18,418.00,,
"CA001015630","2008-11-07",52.34,44.96,323.00,,
"CA001015630","2008-11-08",56.30,50.36,57.00,,
"CA001015630","2008-11-09",52.34,48.74,11.00,,
"CA001015630","2008-11-10",53.06,41.18,0.00,,
"CA001015630","2008-11-11",48.38,42.26,130.00,,
"CA001015630","2008-11-12",55.22,41.90,76.00,,
"CA001015630","2008-11-13",52.52,34.16,0.00,,
"CA001015630","2008-11-14",46.76,35.24,3.00,,
"CA001015630","2008-11-15",50.00,41.18,0.00,,
"CA001015630","2008-11-16",49.28,45.50,0.00,,
"CA001015630","2008-11-17",55.94,39.74,0.00,,
"CA001015630","2008-11-18",53.78,33.08,0.00,,
"CA001015630","2008-11-19",56.30,29.48,0.00,,
"CA001015630","2008-11-20",47.30,29.48,58.00,,
"CA001015630","2008-11-21",45.32,36.32,54.00,,
"CA001015630","2008-11-22",49.82,29.48,0.00,,
"CA001015630","2008-11-23",46.58,27.68,0.00,,
"CA001015630","2008-11-24",51.08,26.96,0.00,,
"CA001015630","2008-11-25",52.88,29.84,0.00,,
"CA001015630","2008-11-26",42.26,26.06,0.00,,
"CA001015630","2008-11-27",42.80,27.50,0.00,,
"CA001015630","2008-11-28",46.76,39.20,6.00,,
"CA001015630","2008-11-29",48.92,44.96,29.00,,
"CA001015630","2008-11-30",52.34,46.22,0.00,,
"CA001015630","2008-12-01",48.20,43.88,29.00,,
"CA001015630","2008-12-02",51.44,42.80,0.00,,
"CA001015630","2008-12-03",45.86,33.62,0.00,,
"CA001015630","2008-12-04",45.86,30.02,0.00,,
"CA001015630","2008-12-05",41.72,31.28,0.00,,
"CA001015630","2008-12-06",45.14,40.10,5.00,,
"CA001015630","2008-12-07",50.36,32.00,5.00,,
"CA001015630","2008-12-08",41.54,28.04,0.00,,
"CA001015630","2008-12-09",43.34,35.06,91.00,,
"CA001015630","2008-12-10",46.40,35.96,12.00,,
"CA001015630","2008-12-11",44.42,31.10,0.00,,
"CA001015630","2008-12-12",39.92,33.08,222.00,,
"CA001015630","2008-12-13",37.94,25.52,45.00,,
"CA001015630","2008-12-14",26.78,23.36,133.00,,10.00
"CA001015630","2008-12-15",30.92,11.12,0.00,,120.00
"CA001015630","2008-12-16",35.06,7.34,0.00,,50.00
"CA001015630","2008-12-17",33.44,24.98,86.00,,10.00
"CA001015630","2008-12-18",28.58,19.04,3.00,,100.00
"CA001015630","2008-12-19",27.86,9.68,6.00,,10.00
"CA001015630","2008-12-20",23.00,-0.58,52.00,,30.00
"CA001015630","2008-12-21",29.30,22.10,188.00,,150.00
"CA001015630","2008-12-22",37.40,15.80,40.00,,240.00
"CA001015630","2008-12-23",25.16,7.88,0.00,,230.00
"CA001015630","2008-12-24",32.90,24.44,166.00,,240.00
"CA001015630","2008-12-25",40.46,23.54,141.00,,290.00
"CA001015630","2008-12-26",34.52,16.52,65.00,,300.00
"CA001015630","2008-12-27",43.34,31.82,33.00,,260.00
"CA001015630","2008-12-28",43.52,27.86,0.00,,190.00
"CA001015630","2008-12-29",40.28,29.66,107.00,,150.00
"CA001015630","2008-12-30",38.48,25.88,41.00,,120.00
"CA001015630","2008-12-31",40.10,31.82,54.00,,110.00
"CA001015630","2009-01-01",36.50,29.30,95.00,,80.00
"CA001015630","2009-01-02",39.38,19.22,0.00,,110.00
"CA001015630","2009-01-03",36.68,19.58,0.00,,90.00
"CA001015630","2009-01-04",37.04,30.56,173.00,,90.00
"CA001015630","2009-01-05",36.86,31.10,138.00,,180.00
"CA001015630","2009-01-06",42.44,32.18,147.00,,130.00
"CA001015630","2009-01-07",44.24,36.32,,,80.00
"CA001015630","2009-01-08",48.20,30.74,5.00,,60.00
"CA001015630","2009-01-09",39.02,26.96,16.00,,40.00
"CA001015630","2009-01-10",39.38,33.98,118.00,,20.00
"CA001015630","2009-01-11",40.28,34.52,9.00,,
"CA001015630","2009-01-12",40.64,34.88,0.00,,
"CA001015630","2009-01-13",42.44,33.98,0.00,,
"CA001015630","2009-01-14",37.76,31.28,0.00,,
"CA001015630","2009-01-15",35.60,31.82,0.00,,
"CA001015630","2009-01-16",34.16,28.94,0.00,,
"CA001015630","2009-01-17",39.56,24.98,0.00,,
"CA001015630","2009-01-18",49.10,25.16,0.00,,
"CA001015630","2009-01-19",45.86,23.72,0.00,,
"CA001015630","2009-01-20",43.88,23.54,0.00,,
"CA001015630","2009-01-21",31.64,22.28,0.00,,
"CA001015630","2009-01-22",31.64,28.04,0.00,,
"CA001015630","2009-01-23",41.54,25.52,0.00,,
"CA001015630","2009-01-24",37.04,22.28,0.00,,
"CA001015630","2009-01-25",37.58,23.72,0.00,,
"CA001015630","2009-01-26",37.40,15.80,0.00,,
"CA001015630","2009-01-27",35.78,29.84,37.00,,
"CA001015630","2009-01-28",46.22,26.24,0.00,,
"CA001015630","2009-01-29",45.50,31.46,0.00,,
"CA001015630","2009-01-30",46.94,35.96,0.00,,
"CA001015630","2009-01-31",48.02,30.20,0.00,,
"CA001015630","2009-02-01",38.84,27.86,44.00,,
"CA001015630","2009-02-02",44.96,33.98,33.00,,
"CA001015630","2009-02-03",50.36,27.68,0.00,,
"CA001015630","2009-02-04",51.08,27.14,0.00,,
"CA001015630","2009-02-05",44.60,27.50,3.00,,
"CA001015630","2009-02-06",50.72,29.48,0.00,,
"CA001015630","2009-02-07",45.86,23.36,0.00,,
"CA001015630","2009-02-08",45.68,29.48,0.00,,
"CA001015630","2009-02-09",45.32,28.94,0.00,,
"CA001015630","2009-02-10",34.88,25.34,101.00,,
"CA001015630","2009-02-11",44.42,31.46,0.00,,
"CA001015630","2009-02-12",40.82,28.40,0.00,,
"CA001015630","2009-02-13",43.70,28.76,0.00,,
"CA001015630","2009-02-14",42.80,28.76,0.00,,
"CA001015630","2009-02-15",46.04,24.80,0.00,,
"CA001015630","2009-02-16",44.96,21.38,0.00,,
"CA001015630","2009-02-17",49.28,28.40,0.00,,
"CA001015630","2009-02-18",49.64,23.36,0.00,,
"CA001015630","2009-02-19",49.64,24.98,0.00,,
"CA001015630","2009-02-20",51.62,23.36,0.00,,
"CA001015630","2009-02-21",50.54,23.90,0.00,,
"CA001015630","2009-02-22",47.12,36.50,65.00,,
"CA001015630","2009-02-23",47.66,40.46,22.00,,
"CA001015630","2009-02-24",53.06,38.66,51.00,,
"CA001015630","2009-02-25",43.52,31.82,68.00,,
"CA001015630","2009-02-26",33.26,27.86,27.00,,
"CA001015630","2009-02-27",40.64,30.92,0.00,,
"CA001015630","2009-02-28",42.80,28.40,5.00,,
"CA001015630","2009-03-01",50.72,36.68,122.00,,
"CA001015630","2009-03-02",55.76,36.86,42.00,,
"CA001015630","2009-03-03",46.58,30.02,,,
"CA001015630","2009-03-04",50.72,27.50,0.00,,
"CA001015630","2009-03-05",47.84,29.48,7.00,,
"CA001015630","2009-03-06",46.94,22.28,0.00,,
"CA001015630","2009-03-07",43.52,27.68,18.00,,
"CA001015630","2009-03-08",39.56,21.92,0.00,,
"CA001015630","2009-03-09",35.60,23.18,116.00,,
"CA001015630","2009-03-10",34.88,20.30,0.00,,10.00
"CA001015630","2009-03-11",41.18,18.14,0.00,,
"CA001015630","2009-03-12",47.48,20.30,0.00,,
"CA001015630","2009-03-13",53.24,26.78,0.00,,
"CA001015630","2009-03-14",46.94,33.44,31.00,,
"CA001015630","2009-03-15",40.46,31.10,170.00,,
"CA001015630","2009-03-16",45.86,31.46,68.00,,
"CA001015630","2009-03-17",48.38,30.74,43.00,,
"CA001015630","2009-03-18",49.82,32.54,21.00,,
"CA001015630","2009-03-19",48.92,41.36,0.00,,
"CA001015630","2009-03-20",51.26,33.08,57.00,,
"CA001015630","2009-03-21",49.46,25.52,0.00,,
"CA001015630","2009-03-22",50.54,27.68,0.00,,
"CA001015630","2009-03-23",40.28,33.26,54.00,,
"CA001015630","2009-03-24",49.82,36.86,0.00,,
"CA001015630","2009-03-25",50.00,31.28,0.00,,
"CA001015630","2009-03-26",49.10,27.68,0.00,,
"CA001015630","2009-03-27",51.98,39.56,0.00,,
"CA001015630","2009-03-28",42.08,33.98,9.00,,
"CA001015630","2009-03-29",51.44,27.68,0.00,,
"CA001015630","2009-03-30",48.56,36.50,0.00,,
"CA001015630","2009-03-31",48.74,36.86,3.00,,
"CA001015630","2009-04-01",37.94,31.46,154.00,,
"CA001015630","2009-04-02",48.02,34.52,38.00,,
"CA001015630","2009-04-03",50.18,27.50,0.00,,
"CA001015630","2009-04-04",52.70,25.88,0.00,,
"CA001015630","2009-04-05",59.90,29.48,0.00,,
"CA001015630","2009-04-06",66.74,31.64,0.00,,
"CA001015630","2009-04-07",64.04,30.92,0.00,,
"CA001015630","2009-04-08",54.32,36.86,0.00,,
"CA001015630","2009-04-09",53.42,38.30,0.00,,
"CA001015630","2009-04-10",55.40,34.52,0.00,,
"CA001015630","2009-04-11",57.02,41.72,0.00,,
"CA001015630","2009-04-12",51.08,41.90,113.00,,
"CA001015630","2009-04-13",52.52,34.52,0.00,,
"CA001015630","2009-04-14",55.58,27.32,0.00,,
"CA001015630","2009-04-15",57.56,28.04,0.00,,
"CA001015630","2009-04-16",53.24,32.90,12.00,,